Lid_Strength_Index
3 3 3 3 3 3 3 4 4 3 3 2 2 1 1 1 1 1 3 2 2 2 2 2 2 2 2 3 3 3 3 3 4 4 3 2 3 2 1 1 -0 1 1
4 4 4 4 4 3 4 3 2 2 1 1 1 1 1 1 2 2 2 1 2 2 2 2 2 1 3 3 3 3 3 3 4 5 4 3 3 2 2 2 0 -0 0
4 5 4 4 4 4 4 3 2 1 1 1 1 1 1 1 1 1 1 1 2 1 2 2 2 2 3 3 3 3 3 2 3 3 3 2 2 3 3 3 2 1 -0
5 5 5 5 4 4 4 3 2 1 2 2 1 1 1 1 1 1 1 2 1 1 1 2 2 2 2 2 2 3 2 3 3 3 4 4 3 2 3 3 3 2 2
6 6 5 3 4 4 4 3 2 2 2 2 1 1 1 1 1 1 1 2 2 2 1 1 1 1 0 1 2 3 3 4 4 5 4 4 4 3 3 3 4 3 2
6 6 5 4 4 4 4 4 3 3 3 2 2 2 1 1 2 2 2 3 2 2 2 1 1 1 1 1 1 1 2 4 5 5 5 5 5 4 3 4 4 4 5
5 4 4 3 4 4 4 4 4 4 3 3 2 2 2 3 3 2 2 3 4 2 1 1 2 1 1 2 1 1 1 1 2 2 3 3 4 3 3 4 4 3 5
5 4 4 3 4 4 4 5 5 4 4 2 2 2 1 1 3 4 4 4 3 1 2 2 3 2 3 3 3 2 2 1 2 2 3 3 2 3 2 2 2 2 1
4 5 4 3 4 4 4 5 5 5 4 4 2 3 3 3 3 4 4 5 3 2 1 1 2 3 5 4 2 2 2 2 2 3 4 4 4 3 2 1 3 3 4
4 4 5 4 3 4 4 5 5 4 4 3 3 3 2 4 4 5 5 4 4 2 2 3 3 4 6 5 3 3 3 4 3 3 2 2 2 2 1 2 3 3 3
4 3 4 5 4 4 5 5 5 4 4 4 4 4 4 4 4 5 6 3 2 2 3 4 5 6 6 5 5 4 4 5 3 1 2 2 2 2 2 2 3 2 4
5 5 5 5 4 3 5 5 4 4 5 5 6 7 6 3 4 4 6 5 4 2 3 4 4 6 6 6 6 7 6 3 2 2 2 3 3 3 2 1 2 1 2
5 6 5 5 4 3 5 5 5 5 6 6 6 7 7 5 3 4 4 5 5 4 2 3 5 7 7 6 5 6 5 2 3 3 3 3 3 2 2 2 2 1 2
6 6 6 6 5 6 4 4 5 6 6 6 6 7 7 6 5 6 5 5 3 3 4 5 5 5 5 5 4 4 4 2 2 2 3 3 2 2 2 3 3 2 3
5 6 6 6 5 6 5 4 4 4 5 6 6 7 8 7 6 8 7 6 7 7 7 5 5 4 4 4 3 3 2 2 3 2 3 3 3 2 2 2 2 2 3
6 6 6 6 6 5 5 6 6 6 6 6 6 6 6 7 7 7 7 7 8 9 6 4 5 5 4 4 4 3 2 2 2 2 2 3 3 2 2 2 2 2 3
6 5 6 6 6 6 5 6 7 6 8 8 8 8 9 7 9 8 7 8 9 9 5 4 4 4 4 3 4 4 3 2 2 2 2 2 2 3 3 2 2 3 3
5 6 5 6 6 6 6 5 6 7 7 6 7 8 9 9 9 9 8 8 5 6 4 4 3 3 4 4 2 3 3 2 3 2 3 2 2 2 3 2 2 2 3
5 5 6 6 5 5 5 5 6 6 6 6 5 8 8 9 9 10 9 6 4 4 3 3 3 3 3 3 4 3 2 3 3 3 3 3 2 2 3 3 4 5 4
4 6 6 5 5 5 5 6 6 6 6 4 6 5 6 7 7 7 7 5 3 3 3 3 3 3 3 2 3 3 3 3 3 3 4 4 2 2 3 4 3 3 3
3 4 6 5 4 4 5 5 5 6 6 6 5 6 9 6 5 5 5 4 3 2 3 3 3 2 2 3 3 2 2 1 3 3 3 4 4 2 3 2 2 3 3
3 2 2 3 2 2 4 4 4 4 4 5 6 5 11 6 6 4 3 2 2 1 1 2 2 2 3 3 3 3 3 3 3 3 2 3 3 3 4 3 2 2 3
4 3 3 3 3 4 3 3 3 4 4 4 5 5 9 6 5 5 5 4 4 3 1 1 1 1 1 1 2 2 3 2 2 2 2 2 2 3 3 4 3 4 3
7 7 5 3 3 3 3 3 3 5 3 3 3 4 4 7 6 5 6 5 4 4 2 1 1 1 2 1 2 1 1 1 0 1 1 1 1 3 3 3 3 3 3
8 8 7 8 7 5 3 3 3 3 3 3 3 3 3 4 4 4 4 4 4 4 3 1 1 0 1 1 1 1 5 9 3 5 1 2 2 2 2 3 4 3 3
9 9 9 7 7 6 7 5 3 3 3 3 2 2 2 3 2 3 3 3 4 4 4 4 3 6 6 5 9 8 10 10 5 7 2 2 3 2 2 2 2 3 3